Regional Weather Roundup
Issued by NWS Charleston, SC

Current Version | Previous Version | Graphics & Text | Print | Product List | Glossary On
Versions: 1 2 3 4 5 6 7 8 9 10 11 12 13 14 15 16 17 18 19 20 21 22 23 24 25 26 27 28 29 30 31 32 33 34 35 36 37 38 39 40 41 42 43 44 45 46 47 48 49 50
000
ASUS42 KCHS 280527
RWRCHS

REGIONAL WEATHER ROUNDUP
NATIONAL WEATHER SERVICE CHARLESTON SC
100 AM EDT FRI JUL 28 2017

NOTE: "FAIR" INDICATES FEW OR NO CLOUDS BELOW 12,000 FEET WITH NO
SIGNIFICANT WEATHER AND/OR OBSTRUCTIONS TO VISIBILITY.

NOT ALL STATIONS ARE QUALITY CONTROLLED. USE DATA WITH CAUTION...
ESPECIALLY DEWPOINT OBSERVATIONS.

SCZ027-030-031-034>040-042>050-280600-
...SOUTHEAST SOUTH CAROLINA...

CITY           SKY/WX    TMP DP  RH WIND       PRES   REMARKS
N CHARLESTON   PTCLDY    78  75  90 S5        29.94F
WATERFRONT PRK   N/A     81  78  91 S5        29.93F
JOHNS ISLAND   MOCLDY    81  77  89 S8        29.93F
PINOPOLIS        N/A     79  75  89 CALM      29.87F
MONCKS CORNER  FAIR      73  73 100 CALM      29.93F
SUMMERVILLE    FAIR      75  73  94 CALM      29.95S
BEAUFORT MCAS  MOCLDY    81  76  84 S3        29.94F
BEAUFORT ARPT  FAIR      77  73  88 CALM      29.93F
HILTON HEAD IS CLOUDY    79  75  89 CALM      29.94F
WALTERBORO     NOT AVBL
ALLENDALE      NOT AVBL

...SOUTHERN MIDLANDS AND PEE DEE...

CITY           SKY/WX    TMP DP  RH WIND       PRES   REMARKS
GEORGETOWN     FAIR      73  73 100 S5        29.95F
KINGSTREE      FAIR      73  72  94 CALM      29.94S
ORANGEBURG     CLEAR     75  73  93 S3        29.94F
BARNWELL       FAIR      77  75  94 CALM      29.94F
AIKEN          FAIR      73  73 100 S5        29.98S
MANNING        FAIR      79  73  83 SW6       29.94F
COLUMBIA       MOCLDY    80  72  76 SW7       29.92F
SUMTER         PTCLDY    76  73  87 SW6       29.91F
FLORENCE       PTCLDY    76  75  97 S6        29.93F
MYRTLE BEACH   NOT AVBL
N MYRTLE BEACH PTCLDY    80  75  84 SW12      29.94F

$$

GAZ063-065-086>088-099>101-113>116-118-119-134>141-150-280600-
...SOUTHEAST GEORGIA...

CITY           SKY/WX    TMP DP  RH WIND       PRES   REMARKS
SAVANNAH ARPT  CLOUDY    78  74  87 CALM      29.94F
HUNTER AAF     CLOUDY    77  75  94 CALM      29.92F
FORT STEWART   CLOUDY    77  75  94 CALM      29.92F FOG
STATESBORO     CLOUDY    75  75 100 CALM      29.94F
SYLVANIA       CLOUDY    75  75 100 CALM      29.94F
CLAXTON        FAIR      75  74  98 CALM      29.94F

...CSRA...CENTRAL AND FAR SOUTHEAST GEORGIA...

CITY           SKY/WX    TMP DP  RH WIND       PRES   REMARKS
THOMSON        CLOUDY    76  74  93 W3        29.98F
AUGUSTA-BUSH   PTCLDY    79  75  87 CALM      29.92F
AUGUSTA-DANIEL CLOUDY    80  73  79 SE5       29.94F
SWAINSBORO     FAIR      77  77 100 S3        29.95F
VIDALIA        PTCLDY    77  75  94 CALM      29.95S
EASTMAN        FAIR      78  78 100 CALM      29.97S
HAZLEHURST     FAIR      79  79 100 CALM      29.94S
ALMA           CLOUDY    76  74  93 CALM      29.95S
WAYCROSS       CLOUDY    80  80 100 CALM      29.95S
JESUP          NOT AVBL
BAXLEY         FAIR      77  77 100 CALM      29.94F
BRUNSWICK      PTCLDY    77  77 100 CALM      29.95S
SAINT SIMONS   PTCLDY    79  76  90 SW6       29.94S

$$

SCZ027-028-034-036>038-045-046-048>050-GAZ119-141-280600-
...LAKE AND SUPPLEMENTAL COASTAL OBSERVATIONS...

STATION/POSITION TIME  TEMP    WIND        PRES    WAVE   SWELL
                       AIR SEA DIR/SP/G            HT/PER HT/PER/DIR
                 (UTC) (F)     (DEG/KT/KT) (MB)    (FT/S) (FT/S/D)
WINYAH BAY       0445   79     230/  4     1014.0S
LAKE MURRAY      0520   81     200/ 10/ 12 1012.2
ACE BASIN NERRS  0430   80        CALM     1014.0F
FORT PULASKI     0500   80 84  240/  4/  5 1014.1
SAPELO ISLAND    0500   78        CALM     1014.0

$$

ANZ835-935-AMZ111-154-330-350-352-354-370-450-454-472-280600-
...C-MAN AND BUOY OBSERVATIONS...

STATION/POSITION TIME  TEMP    WIND        PRES    WAVE   SWELL
                       AIR SEA DIR/SP/G            HT/PER HT/PER/DIR
                 (UTC) (F)     (DEG/KT/KT) (MB)    (FT/S) (FT/S/D)
BUOY 41004       0510   82 82  170/ 10/ 12 1013.4
BUOY 41008       0450   81 81  230/  8/ 10 1013.5R   2/10   2/ 60/10
FOLLY BEACH CMAN 0500   81     180/ 10/ 13 1014.6F
CAPERS NEARSHORE 0508   80 84  200/ 14/ 17 1013.5F
FRIPP NEARSHORE  0508   81 84  190/ 10/ 12 1013.2F


STATION/POSITION TIME  TEMP    WIND        PRES    WAVE   SWELL
                       AIR SEA DIR/SP/G            HT/PER HT/PER/DIR
                 (UTC) (F)     (DEG/KT/KT) (MB)    (FT/S) (FT/S/D)
5E ST. MARYS GA  0500      79                N/A     2/10
FRYING PAN BUOY  0510   82 82  210/ 12/ 14 1013.8
BUOY 41025       0450   81 83  190/ 17/ 21 1013.6F   3/ 8   2/ 60/ 8
CAPE LOOKOUT NC  0500   80     190/ 10/ 12 1013.7F
BUOY 41002       0450   82 83  250/ 10/ 12 1015.3R   3/ 7   2/ 80/ 7
BUOY 41010       0510   84 85  160/ 14/ 16 1015.4
ST AUGUSTINE FL  0500   79 76  200/  5/  6 1014.8F


$$



USA.gov is the U.S. government's official web portal to all federal, state and local government web resources and services.